Humboldt, Iowa, United States (50548)
Lat: 42.72N, Lon: 94.22W
Wx Zone: IAZ024
Local Info
Past Weather Observations for Thursday, April 28, 2016

NOTE: This archive is for the closest National Weather Service station to Humboldt. Information may differ from the station used for current weather conditions.

Click here for Long-term Archive

Time Weather Temperature Dewpoint Humidity Pressure Winds Precip Visibility
23:55
Overcast
41°F / 5°C 37°F / 3°C 87% 30.09 in
(1019 mb)
N 4.6 mph
(N 7 kph)
- 3SM
23:35
Overcast
43°F / 6°C 37°F / 3°C 81% 30.09 in
(1019 mb)
N 3.5 mph
(N 6 kph)
- 4SM
23:15
Overcast
43°F / 6°C 37°F / 3°C 81% 30.09 in
(1019 mb)
N 4.6 mph
(N 7 kph)
- 4SM
22:55
Overcast
43°F / 6°C 37°F / 3°C 81% 30.09 in
(1019 mb)
NNW 5.8 mph
(NNW 9 kph)
- 8SM
22:35
Overcast
43°F / 6°C 37°F / 3°C 81% 30.09 in
(1019 mb)
NNW 4.6 mph
(NNW 7 kph)
- 10SM
22:15
Overcast
43°F / 6°C 37°F / 3°C 81% 30.09 in
(1019 mb)
N 6.9 mph
(N 11 kph)
- 10SM
21:55
Overcast
43°F / 6°C 37°F / 3°C 81% 30.09 in
(1019 mb)
N 9.2 mph
(N 15 kph)
- 9SM
21:35
Overcast
43°F / 6°C 37°F / 3°C 81% 30.06 in
(1018 mb)
N 6.9 mph
(N 11 kph)
- 10SM
21:15
Overcast
43°F / 6°C 37°F / 3°C 81% 30.06 in
(1018 mb)
N 8.1 mph
(N 13 kph)
- 10SM
20:55
Overcast
43°F / 6°C 37°F / 3°C 81% 30.06 in
(1018 mb)
N 6.9 mph
(N 11 kph)
- 10SM
20:35
Overcast
45°F / 7°C 37°F / 3°C 76% 30.06 in
(1018 mb)
N 6.9 mph
(N 11 kph)
- 10SM
20:15
Overcast
45°F / 7°C 37°F / 3°C 76% 30.04 in
(1017 mb)
N 5.8 mph
(N 9 kph)
- 10SM
19:55
Overcast
45°F / 7°C 39°F / 4°C 81% 30.04 in
(1017 mb)
N 5.8 mph
(N 9 kph)
- 10SM
19:35
Overcast
45°F / 7°C 39°F / 4°C 81% 30.04 in
(1017 mb)
N 4.6 mph
(N 7 kph)
- 10SM
19:15
Overcast
45°F / 7°C 39°F / 4°C 81% 30.04 in
(1017 mb)
N 5.8 mph
(N 9 kph)
- 10SM
18:55
Overcast
45°F / 7°C 39°F / 4°C 81% 30.04 in
(1017 mb)
N 4.6 mph
(N 7 kph)
- 10SM
18:35
Overcast
46°F / 8°C 39°F / 4°C 76% 30.01 in
(1016 mb)
NNE 6.9 mph
(NNE 11 kph)
- 10SM
18:15
Overcast
46°F / 8°C 39°F / 4°C 76% 30.01 in
(1016 mb)
N 8.1 mph
(N 13 kph)
- 10SM
17:55
Overcast
46°F / 8°C 39°F / 4°C 76% 30.01 in
(1016 mb)
N 4.6 mph
(N 7 kph)
- 10SM
17:35
Overcast
46°F / 8°C 39°F / 4°C 76% 30.01 in
(1016 mb)
N 5.8 mph
(N 9 kph)
- 10SM
17:15
Overcast
46°F / 8°C 41°F / 5°C 82% 30.01 in
(1016 mb)
N 5.8 mph
(N 9 kph)
- 10SM
16:55
Overcast
46°F / 8°C 41°F / 5°C 82% 30.01 in
(1016 mb)
NNE 6.9 mph
(NNE 11 kph)
- 10SM
16:35
Overcast
46°F / 8°C 41°F / 5°C 82% 29.98 in
(1015 mb)
N 8.1 mph
(N 13 kph)
- 9SM
16:15
Overcast
46°F / 8°C 41°F / 5°C 82% 29.98 in
(1015 mb)
N 8.1 mph
(N 13 kph)
- 6SM
15:55
Overcast
46°F / 8°C 41°F / 5°C 82% 29.98 in
(1015 mb)
N 6.9 mph
(N 11 kph)
- 3SM
15:35
Overcast
46°F / 8°C 41°F / 5°C 82% 29.98 in
(1015 mb)
NNW 8.1 mph
(NNW 13 kph)
- 3SM
15:15
Overcast
46°F / 8°C 41°F / 5°C 82% 29.98 in
(1015 mb)
NNW 5.8 mph
(NNW 9 kph)
- 5SM
14:55
Overcast
46°F / 8°C 41°F / 5°C 82% 29.95 in
(1014 mb)
NNE 5.8 mph
(NNE 9 kph)
- 10SM
14:35
Overcast
46°F / 8°C 41°F / 5°C 82% 29.95 in
(1014 mb)
N 6.9 mph
(N 11 kph)
- 10SM
14:15
Overcast
46°F / 8°C 43°F / 6°C 87% 29.95 in
(1014 mb)
N 8.1 mph
(N 13 kph)
- 10SM
13:55
Overcast
46°F / 8°C 41°F / 5°C 82% 29.95 in
(1014 mb)
N 9.2 mph
(N 15 kph)
- 10SM
13:35
Overcast
46°F / 8°C 41°F / 5°C 82% 29.92 in
(1013 mb)
N 8.1 mph
(N 13 kph)
- 10SM
13:15
Overcast
48°F / 9°C 43°F / 6°C 82% 29.92 in
(1013 mb)
N 8.1 mph
(N 13 kph)
- 10SM
12:55
Overcast
48°F / 9°C 43°F / 6°C 82% 29.92 in
(1013 mb)
N 6.9 mph
(N 11 kph)
- 10SM
12:35
Overcast
46°F / 8°C 43°F / 6°C 87% 29.92 in
(1013 mb)
N 9.2 mph
(N 15 kph)
- 9SM
12:15
Overcast
48°F / 9°C 43°F / 6°C 82% 29.92 in
(1013 mb)
NNW 8.1 mph
(NNW 13 kph)
- 7SM
11:55
Overcast
48°F / 9°C 43°F / 6°C 82% 29.89 in
(1012 mb)
NW 4.6 mph
(NW 7 kph)
- 10SM
11:35
Overcast
48°F / 9°C 43°F / 6°C 82% 29.89 in
(1012 mb)
Calm - 10SM
11:15
Overcast
48°F / 9°C 43°F / 6°C 82% 29.89 in
(1012 mb)
Calm - 10SM
10:55
Overcast
46°F / 8°C 43°F / 6°C 87% 29.89 in
(1012 mb)
ENE 3.5 mph
(ENE 6 kph)
- 10SM
10:35
Overcast
46°F / 8°C 43°F / 6°C 87% 29.86 in
(1011 mb)
ENE 4.6 mph
(ENE 7 kph)
- 10SM
10:15
Overcast
46°F / 8°C 41°F / 5°C 82% 29.86 in
(1011 mb)
E 8.1 mph
(E 13 kph)
- 10SM
09:55
Overcast
46°F / 8°C 41°F / 5°C 82% 29.86 in
(1011 mb)
E 6.9 mph
(E 11 kph)
- 10SM
09:35
Overcast
46°F / 8°C 41°F / 5°C 82% 29.83 in
(1010 mb)
E 6.9 mph
(E 11 kph)
- 10SM
09:15
Overcast
45°F / 7°C 39°F / 4°C 81% 29.83 in
(1010 mb)
E 9.2 mph
(E 15 kph)
- 10SM
08:55
Overcast
45°F / 7°C 39°F / 4°C 81% 29.83 in
(1010 mb)
E 10.4 mph
(E 17 kph)
- 10SM
08:35
Overcast
45°F / 7°C 39°F / 4°C 81% 29.83 in
(1010 mb)
E 12.7 mph
(E 20 kph)
- 10SM
08:15
Overcast
45°F / 7°C 39°F / 4°C 81% 29.8 in
(1009 mb)
E 13.8 mph
(E 22 kph)
- 10SM
07:55
Overcast
45°F / 7°C 39°F / 4°C 81% 29.8 in
(1009 mb)
ENE 13.8 mph
(ENE 22 kph)
- 10SM
07:35
Overcast
45°F / 7°C 39°F / 4°C 81% 29.8 in
(1009 mb)
ENE 11.5 mph
(ENE 19 kph)
- 8SM
07:15
Overcast
45°F / 7°C 39°F / 4°C 81% 29.8 in
(1009 mb)
ENE 11.5 mph
(ENE 19 kph)
- 5SM
06:55
Overcast
45°F / 7°C 39°F / 4°C 81% 29.77 in
(1008 mb)
ENE 11.5 mph
(ENE 19 kph)
- 9SM
06:35
Overcast
45°F / 7°C 39°F / 4°C 81% 29.77 in
(1008 mb)
ENE 12.7 mph
(ENE 20 kph)
- 10SM
06:15
Overcast
45°F / 7°C 39°F / 4°C 81% 29.77 in
(1008 mb)
ENE 13.8 mph
(ENE 22 kph)
- 9SM
05:55
Overcast
45°F / 7°C 39°F / 4°C 81% 29.74 in
(1007 mb)
ENE 11.5 mph
(ENE 19 kph)
- 9SM
05:35
Overcast
45°F / 7°C 39°F / 4°C 81% 29.74 in
(1007 mb)
ENE 12.7 mph
(ENE 20 kph)
- 10SM
05:15
Overcast
45°F / 7°C 39°F / 4°C 81% 29.74 in
(1007 mb)
ENE 12.7 mph
(ENE 20 kph)
- 10SM
04:55
Overcast
45°F / 7°C 39°F / 4°C 81% 29.71 in
(1006 mb)
ENE 15 mph
(ENE 24 kph)
- 9SM
04:35
Overcast
45°F / 7°C 39°F / 4°C 81% 29.71 in
(1006 mb)
ENE 13.8 mph
(ENE 22 kph)
- 7SM
04:15
Overcast
45°F / 7°C 39°F / 4°C 81% 29.71 in
(1006 mb)
ENE 13.8 mph
(ENE 22 kph)
- 5SM
03:55
Overcast
43°F / 6°C 39°F / 4°C 87% 29.71 in
(1006 mb)
ENE 11.5 mph
(ENE 19 kph)
- 8SM
03:35
Overcast
43°F / 6°C 39°F / 4°C 87% 29.71 in
(1006 mb)
ENE 15 mph
(ENE 24 kph)
- 10SM
03:15
Overcast
43°F / 6°C 39°F / 4°C 87% 29.68 in
(1005 mb)
ENE 13.8 mph
(ENE 22 kph)
- 9SM
02:55
Overcast
43°F / 6°C 39°F / 4°C 87% 29.68 in
(1005 mb)
ENE 12.7 mph
(ENE 20 kph)
- 7SM
02:35
Overcast
43°F / 6°C 39°F / 4°C 87% 29.68 in
(1005 mb)
ENE 13.8 mph
(ENE 22 kph)
- 8SM
02:15
Overcast
45°F / 7°C 39°F / 4°C 81% 29.68 in
(1005 mb)
ENE 13.8 mph
(ENE 22 kph)
- 6SM
01:55
Overcast
45°F / 7°C 39°F / 4°C 81% 29.68 in
(1005 mb)
ENE 12.7 mph
(ENE 20 kph)
- 5SM
01:35
Overcast
45°F / 7°C 39°F / 4°C 81% 29.68 in
(1005 mb)
E 13.8 mph
(E 22 kph)
- 5SM
01:15
Overcast
45°F / 7°C 39°F / 4°C 81% 29.68 in
(1005 mb)
E 15 mph
(E 24 kph)
- 5SM
00:55
Overcast
45°F / 7°C 39°F / 4°C 81% 29.68 in
(1005 mb)
E 15 mph
(E 24 kph)
- 5SM
00:35
Overcast
45°F / 7°C 39°F / 4°C 81% 29.68 in
(1005 mb)
E 17.3 mph
(E 28 kph)
- 5SM
00:15
Overcast
45°F / 7°C 39°F / 4°C 81% 29.68 in
(1005 mb)
E 17.3 mph
(E 28 kph)
- 10SM
Time Weather Temperature Dewpoint Humidity Pressure Winds Precip Visibility


Weather for websites

WeatherForYou.com, LLC is not responsible for any damages or problems caused by this service. Current weather conditions are obtained from the closest station including government and personal stations which may have varying degrees of accuracy. Weather forecasts are derived from the NOAA NDFD. Like all things, this site belongs to Jesus Christ... He just trusts us to maintain it. If you have any questions or comments email webmaster@weatherforyou.com

Copyright © 2016, WeatherForYou.com LLC. All rights reserved.